TimeEDT,TemperatureF,Dew PointF,Humidity,Sea Level PressureIn,VisibilityMPH,Wind Direction,Wind SpeedMPH,Gust SpeedMPH,PrecipitationIn,Events,Conditions,WindDirDegrees,DateUTC
12:12 AM,39.2,37.4,93,29.95,3.0,Calm,Calm,-,N/A,,Clear,0,2012-10-17 04:12:00
12:33 AM,37.4,35.6,93,29.96,3.0,Calm,Calm,-,N/A,,Clear,0,2012-10-17 04:33:00
12:54 AM,37.4,35.6,93,29.97,4.0,Calm,Calm,-,N/A,,Clear,0,2012-10-17 04:54:00
1:15 AM,37.4,35.6,93,29.97,4.0,Calm,Calm,-,N/A,,Clear,0,2012-10-17 05:15:00
2:00 AM,37.4,35.6,93,29.98,4.0,Calm,Calm,-,N/A,,Clear,0,2012-10-17 06:00:00
2:21 AM,37.4,35.6,93,29.98,4.0,Calm,Calm,-,N/A,,Clear,0,2012-10-17 06:21:00
3:03 AM,35.6,35.6,100,29.98,4.0,Calm,Calm,-,N/A,,Clear,0,2012-10-17 07:03:00
3:24 AM,37.4,35.6,93,29.97,4.0,Calm,Calm,-,N/A,,Clear,0,2012-10-17 07:24:00
4:06 AM,37.4,35.6,93,29.98,4.0,Calm,Calm,-,N/A,,Clear,0,2012-10-17 08:06:00
4:27 AM,37.4,35.6,93,29.98,4.0,Calm,Calm,-,N/A,,Clear,0,2012-10-17 08:27:00
5:33 AM,37.4,35.6,93,29.99,4.0,Calm,Calm,-,N/A,,Clear,0,2012-10-17 09:33:00
5:54 AM,35.6,35.6,100,29.99,4.0,Calm,Calm,-,N/A,,Clear,0,2012-10-17 09:54:00
6:15 AM,35.6,35.6,100,30.00,4.0,Calm,Calm,-,N/A,,Clear,0,2012-10-17 10:15:00
6:36 AM,35.6,35.6,100,30.00,4.0,Calm,Calm,-,N/A,,Clear,0,2012-10-17 10:36:00
6:57 AM,35.6,33.8,93,30.01,4.0,Calm,Calm,-,N/A,,Clear,0,2012-10-17 10:57:00
7:18 AM,35.6,33.8,93,30.01,3.0,Calm,Calm,-,N/A,,Clear,0,2012-10-17 11:18:00
7:39 AM,35.6,33.8,93,30.01,3.0,Calm,Calm,-,N/A,,Clear,0,2012-10-17 11:39:00
8:00 AM,35.6,35.6,100,30.02,2.5,Calm,Calm,-,N/A,,Clear,0,2012-10-17 12:00:00
8:21 AM,37.4,35.6,93,30.02,4.0,Calm,Calm,-,N/A,,Clear,0,2012-10-17 12:21:00
8:45 AM,41.0,39.2,93,30.03,3.0,Calm,Calm,-,N/A,,Clear,0,2012-10-17 12:45:00
9:06 AM,42.8,41.0,93,30.03,5.0,Calm,Calm,-,N/A,,Clear,0,2012-10-17 13:06:00
9:27 AM,44.6,42.8,93,30.04,10.0,Calm,Calm,-,N/A,,Clear,0,2012-10-17 13:27:00
10:09 AM,51.8,44.6,76,30.05,10.0,Calm,Calm,-,N/A,,Clear,0,2012-10-17 14:09:00
10:51 AM,55.4,44.6,67,30.05,10.0,South,3.5,-,N/A,,Clear,180,2012-10-17 14:51:00
11:12 AM,57.2,46.4,67,30.04,10.0,South,3.5,-,N/A,,Clear,180,2012-10-17 15:12:00
11:33 AM,57.2,48.2,72,30.04,10.0,SSW,4.6,-,N/A,,Clear,210,2012-10-17 15:33:00
12:36 PM,60.8,42.8,52,30.02,10.0,Calm,Calm,-,N/A,,Clear,0,2012-10-17 16:36:00
1:00 PM,62.6,42.8,48,30.01,10.0,SW,3.5,-,N/A,,Clear,230,2012-10-17 17:00:00
1:21 PM,62.6,41.0,45,30.00,10.0,Calm,Calm,-,N/A,,Clear,0,2012-10-17 17:21:00
1:42 PM,62.6,41.0,45,29.99,10.0,South,3.5,-,N/A,,Clear,170,2012-10-17 17:42:00
2:03 PM,62.6,41.0,45,29.98,10.0,SSE,4.6,-,N/A,,Clear,160,2012-10-17 18:03:00
2:24 PM,64.4,41.0,42,29.97,10.0,South,4.6,-,N/A,,Clear,190,2012-10-17 18:24:00
2:45 PM,64.4,42.8,45,29.96,10.0,South,5.8,-,N/A,,Clear,180,2012-10-17 18:45:00
3:06 PM,64.4,42.8,45,29.96,10.0,SE,6.9,-,N/A,,Clear,140,2012-10-17 19:06:00
3:48 PM,64.4,41.0,42,29.96,10.0,South,6.9,-,N/A,,Clear,180,2012-10-17 19:48:00
4:09 PM,64.4,42.8,45,29.95,10.0,East,5.8,-,N/A,,Clear,100,2012-10-17 20:09:00
4:30 PM,64.4,46.4,52,29.95,10.0,SE,5.8,-,N/A,,Clear,130,2012-10-17 20:30:00
4:51 PM,62.6,48.2,59,29.95,10.0,ESE,8.1,-,N/A,,Clear,110,2012-10-17 20:51:00
5:15 PM,62.6,48.2,59,29.95,10.0,ESE,6.9,-,N/A,,Clear,110,2012-10-17 21:15:00
5:36 PM,60.8,48.2,63,29.95,10.0,ESE,8.1,-,N/A,,Clear,120,2012-10-17 21:36:00
5:57 PM,59.0,48.2,67,29.96,10.0,ESE,6.9,-,N/A,,Clear,120,2012-10-17 21:57:00
6:18 PM,59.0,48.2,67,29.96,10.0,ESE,5.8,-,N/A,,Clear,120,2012-10-17 22:18:00
6:39 PM,57.2,48.2,72,29.96,10.0,ESE,5.8,-,N/A,,Clear,120,2012-10-17 22:39:00
7:00 PM,55.4,48.2,77,29.96,10.0,SE,4.6,-,N/A,,Clear,130,2012-10-17 23:00:00
7:21 PM,53.6,48.2,82,29.97,10.0,SE,4.6,-,N/A,,Clear,140,2012-10-17 23:21:00
7:42 PM,50.0,46.4,87,29.97,10.0,SE,3.5,-,N/A,,Clear,140,2012-10-17 23:42:00
8:03 PM,50.0,46.4,87,29.98,10.0,SE,3.5,-,N/A,,Clear,140,2012-10-18 00:03:00
8:24 PM,50.0,46.4,87,29.98,10.0,SE,3.5,-,N/A,,Clear,140,2012-10-18 00:24:00
8:45 PM,48.2,46.4,93,29.98,10.0,Calm,Calm,-,N/A,,Clear,0,2012-10-18 00:45:00
9:06 PM,46.4,44.6,93,29.98,10.0,Calm,Calm,-,N/A,,Clear,0,2012-10-18 01:06:00
9:30 PM,46.4,44.6,93,29.98,7.0,Calm,Calm,-,N/A,,Clear,0,2012-10-18 01:30:00
9:51 PM,46.4,44.6,93,29.98,5.0,Calm,Calm,-,N/A,,Clear,0,2012-10-18 01:51:00
10:12 PM,46.4,44.6,93,29.98,5.0,Calm,Calm,-,N/A,,Clear,0,2012-10-18 02:12:00
10:33 PM,46.4,44.6,93,29.98,5.0,Calm,Calm,-,N/A,,Clear,0,2012-10-18 02:33:00
10:54 PM,44.6,44.6,100,29.98,5.0,Calm,Calm,-,N/A,,Clear,0,2012-10-18 02:54:00
11:15 PM,44.6,42.8,93,29.97,5.0,Calm,Calm,-,N/A,,Clear,0,2012-10-18 03:15:00
11:36 PM,44.6,42.8,93,29.97,5.0,Calm,Calm,-,N/A,,Clear,0,2012-10-18 03:36:00
11:57 PM,44.6,42.8,93,29.97,5.0,Calm,Calm,-,N/A,,Clear,0,2012-10-18 03:57:00